View from above orbital plane
|
View from above satellite
|
Ground track
|
The orbit data is extracted from the following two-line orbital elements,
1 33410U 08053C 21060.42583845 .00000039 00000-0 80659-5 0 9990
2 33410 97.8825 55.4564 0119339 337.5175 22.0842 14.99398846673272
Epoch (UTC): | 01 March 2021 10:13:12 |
Eccentricity: | 0.0119339 |
inclination: | 97.8825° |
perigee height: | 486 km |
apogee height: | 651 km |
right ascension of ascending node: | 55.4564° |
argument of perigee: | 337.5175° |
revolutions per day: | 14.99398846 |
mean anomaly at epoch: | 22.0842° |
orbit number at epoch: | 67327 |
The dashed part of the orbit path shows where the satellite is in the earth's shadow,
|
|